Flag for Canada Weather past 2 weeks in Sanikiluaq, Nunavut Territory, Canada

Now
-8 °F

Overcast.


Feels Like: -8 °F
Forecast: -8 / 7 °F
Wind: 2 mph from North

Location: Kuujjuarapik

Current Time: Mar 26, 2015 at 10:55:24 PM

Latest Report: Mar 26, 2015 at 10:00 PM


Visibility: 8 mi

Pressure: 30.09 "Hg

Humidity: 77%

Dew point: -13 °F

Location of SanikiluaqLocation

Historic Weather in Sanikiluaq — Graph

°F

Sanikiluaq temperature yesterday

Maximum temperature yesterday: 9 °F (at 2:00 PM)
Minimum temperature yesterday: -11 °F (at 3:00 AM)
Average temperature yesterday: -1 °F

Past Weeks' High & Low Weather Summary

 TemperatureHumidityPressure
High30 °F (Mar 15, 4:00 PM)100% (Mar 20, 7:00 AM)30.53 "Hg (Mar 20, 7:00 AM)
Low-26 °F (Mar 22, 7:02 AM)34% (Mar 15, 5:00 PM)29.36 "Hg (Mar 16, 8:00 AM)
Average-1 °F75%30.06 "Hg
* Reported Mar 11 9:00 PM — Mar 26 9:00 PM, Sanikiluaq, Weather by CustomWeather, © 2015

Note: Actual official high and low records may vary slightly from our data, if they occured in-between our weather recording intervals... More about our weather records

Advertising

Sanikiluaq weather history for previous 24 hours

 ConditionsComfort  
Time TempWeatherWind HumidityBarometerVisibility
9:00 PM
Thu, Mar 26
-9 °FOvercast.2 mph77%30.09 "Hg9 mi
8:00 PM-11 °FScattered clouds.5 mph84%30.08 "Hg9 mi
7:00 PM-6 °FPartly sunny.9 mph77%30.06 "Hg9 mi
6:00 PM-4 °FOvercast.10 mph77%30.04 "Hg9 mi
5:00 PM-4 °FPartly sunny.14 mph77%30.01 "Hg9 mi
4:00 PM-4 °FPartly sunny.9 mph77%29.99 "Hg9 mi
3:00 PM-4 °FPassing clouds.12 mph71%29.97 "Hg9 mi
2:00 PM-6 °FSunny.12 mph77%29.95 "Hg9 mi
1:00 PM-6 °FSunny.14 mph70%29.93 "Hg9 mi
12:00 PM-9 °FSunny.10 mph77%29.91 "Hg9 mi
11:00 AM-11 °FSunny.12 mph76%29.89 "Hg9 mi
10:00 AM-13 °FSunny.9 mph83%29.87 "Hg9 mi
9:00 AM-13 °FSunny.8 mph76%29.85 "Hg9 mi
8:00 AM-13 °FSunny.7 mph76%29.83 "Hg9 mi
7:50 AM-13 °FClear.8 mph76%29.83 "Hg9 mi
7:00 AM-11 °FLight snow. Passing clouds.10 mph76%29.80 "Hg9 mi
6:00 AM-11 °FPassing clouds.9 mph84%29.79 "Hg9 mi
5:03 AM-9 °FLight snow. Passing clouds.8 mph77%29.79 "Hg6 mi
4:00 AM-9 °FClear.9 mph84%29.78 "Hg9 mi
3:55 AM-9 °FClear.8 mph84%29.78 "Hg9 mi
3:00 AM-6 °FOvercast.8 mph84%29.79 "Hg9 mi
2:56 AM-6 °FOvercast.10 mph84%29.79 "Hg9 mi
2:00 AM-4 °FOvercast.9 mph77%29.78 "Hg9 mi
1:04 AM-4 °FPassing clouds.8 mph84%29.79 "Hg9 mi
12:54 AM-4 °FLight snow. Overcast.9 mph84%29.80 "Hg9 mi
12:00 AM0 °FLight snow. Mostly cloudy.13 mph84%29.80 "Hg1 mi
11:03 PM
Wed, Mar 25
0 °FLight snow. Mostly cloudy.8 mph84%29.82 "Hg2 mi
10:00 PM1 °FLight snow. Overcast.8 mph85%29.84 "Hg4 mi
Weather by CustomWeather, © 2015

See weather overviewHow to use our weather pages